Flag for Germany Weather past 2 weeks in Lindlar, North Rhine-Westphalia, Germany

Now
58 °F

Thunderstorms. Overcast.


Feels Like: 58 °F
Forecast: 39 / 51 °F
Wind: 2 mph from North

Location: Koeln / Bonn

Current Time: Apr 26, 2015 at 7:16:53 PM

Latest Report: Apr 26, 2015 at 7:00 PM


Visibility: 11 mi

Pressure: 29.68 "Hg

Humidity: 88%

Dew point: 54 °F

Location of LindlarLocation

Historic Weather in Lindlar — Graph

°F

Lindlar temperature yesterday

Maximum temperature yesterday: 60 °F (at 6:00 PM)
Minimum temperature yesterday: 53 °F (at 9:00 AM)
Average temperature yesterday: 56 °F

Past Weeks' High & Low Weather Summary

 TemperatureHumidityPressure
High76 °F (Apr 15, 4:00 PM)99% (Apr 24, 5:00 AM)30.49 "Hg (Apr 24, 5:00 AM)
Low31 °F (Apr 19, 7:00 AM)24% (Apr 24, 5:00 PM)29.68 "Hg (Apr 26, 6:00 PM)
Average53 °F63%30.16 "Hg
* Reported Apr 11 6:00 PM — Apr 26 6:00 PM, Lindlar, Weather by CustomWeather, © 2015

Note: Actual official high and low records may vary slightly from our data, if they occured in-between our weather recording intervals... More about our weather records

Advertising

Lindlar weather history for previous 24 hours

 ConditionsComfort  
Time TempWeatherWind HumidityBarometerVisibility
6:00 PM
Sun, Apr 26
61 °FOvercast.1 mph72%29.68 "Hg16 mi
5:00 PM60 °FSprinkles. Overcast.3 mph77%29.69 "Hg19 mi
4:00 PM63 °FPartly sunny.3 mph74%29.70 "Hg31 mi
3:00 PM60 °FThunderstorms. Partly sunny.3 mph88%29.72 "Hg25 mi
2:00 PM61 °FOvercast.1 mph81%29.72 "Hg16 mi
1:00 PM59 °FOvercast.3 mph81%29.74 "Hg12 mi
12:00 PM60 °FOvercast.5 mph72%29.75 "Hg9 mi
11:00 AM58 °FCool.2 mph77%29.76 "HgN/A
10:00 AM59 °FOvercast.2 mph81%29.76 "Hg28 mi
9:00 AM55 °FOvercast.1 mph93%29.77 "Hg25 mi
8:00 AM54 °FOvercast.1 mph95%29.77 "Hg22 mi
7:00 AM52 °FPartly sunny.2 mph97%29.76 "Hg12 mi
6:00 AM52 °FOvercast.2 mph97%29.75 "Hg16 mi
5:00 AM52 °FOvercast.2 mph97%29.77 "Hg19 mi
4:00 AM52 °FOvercast.2 mph97%29.78 "Hg16 mi
3:00 AM52 °FLight rain. Overcast.1 mph95%29.79 "Hg11 mi
2:00 AM52 °FOvercast.1 mph93%29.79 "Hg25 mi
1:00 AM52 °FFog.2 mph92%29.80 "Hg37 mi
12:00 AM52 °FFog.2 mph93%29.80 "Hg37 mi
11:00 PM
Sat, Apr 25
53 °FFog.2 mph94%29.80 "Hg31 mi
10:00 PM53 °FFog.1 mph97%29.80 "Hg31 mi
9:00 PM56 °FOvercast.2 mph93%29.78 "Hg43 mi
8:00 PM57 °FOvercast.1 mph88%29.77 "Hg43 mi
7:00 PM59 °FOvercast.1 mph85%29.77 "Hg28 mi
Weather by CustomWeather, © 2015

See weather overviewHow to use our weather pages